LVLRG SAAR-SABE

Flight info

Callsign LVLRG
Flight time 0h 46m
Altitude 19000
Route W20 MULTA W24 SNT SNT131038 DCT PAL DCT ILM
Aircraft B350/L-SDF/C

Departure

Time 2026-04-26 22:46
Airport Rosario Islas Malvinas International Airport (SAAR)

Arrival

Time 2026-04-26 23:32
Airport Aeroparque Jorge Newbery (SABE)
Time Latitude Longitude Altitude Speed Heading
2026-04-26 22:30 -32.91690 -60.78118 88 ft 0 kts 110°
2026-04-26 22:39 -32.91678 -60.78113 89 ft 8 kts 349°
2026-04-26 22:40 -32.91600 -60.78125 91 ft 14 kts
2026-04-26 22:40 -32.91496 -60.78112 88 ft 16 kts 343°
2026-04-26 22:40 -32.91408 -60.78186 88 ft 15 kts 319°
2026-04-26 22:40 -32.91332 -60.78262 88 ft 14 kts 322°
2026-04-26 22:41 -32.91254 -60.78337 90 ft 15 kts 321°
2026-04-26 22:41 -32.91170 -60.78412 90 ft 15 kts 326°
2026-04-26 22:41 -32.91078 -60.78481 88 ft 16 kts 333°
2026-04-26 22:41 -32.90978 -60.78539 91 ft 16 kts 337°
2026-04-26 22:42 -32.90864 -60.78570 89 ft 18 kts 359°
2026-04-26 22:42 -32.90730 -60.78554 89 ft 21 kts 10°
2026-04-26 22:42 -32.90578 -60.78529 88 ft 23 kts 13°
2026-04-26 22:42 -32.90415 -60.78472 84 ft 26 kts 14°
2026-04-26 22:43 -32.90234 -60.78437 84 ft 26 kts
2026-04-26 22:43 -32.90051 -60.78418 85 ft 27 kts 17°
2026-04-26 22:43 -32.89867 -60.78357 86 ft 28 kts 13°
2026-04-26 22:43 -32.89678 -60.78309 87 ft 28 kts
2026-04-26 22:44 -32.89483 -60.78272 89 ft 29 kts 11°
2026-04-26 22:44 -32.89285 -60.78221 85 ft 30 kts 13°
2026-04-26 22:44 -32.89095 -60.78165 87 ft 24 kts 17°
2026-04-26 22:44 -32.89076 -60.78181 85 ft 6 kts 197°
2026-04-26 22:45 -32.89098 -60.78184 87 ft 0 kts 189°
2026-04-26 22:45 -32.89101 -60.78185 87 ft 5 kts 189°
2026-04-26 22:45 -32.89406 -60.78256 87 ft 83 kts 190°
2026-04-26 22:45 -32.90137 -60.78399 235 ft 116 kts 189°
2026-04-26 22:46 -32.90923 -60.78538 809 ft 117 kts 192°
2026-04-26 22:46 -32.91766 -60.78688 1330 ft 127 kts 190°
2026-04-26 22:46 -32.92726 -60.78856 1638 ft 146 kts 190°
2026-04-26 22:46 -32.93747 -60.79035 2138 ft 151 kts 190°
2026-04-26 22:47 -32.94800 -60.79187 2671 ft 153 kts 185°
2026-04-26 22:47 -32.95883 -60.79071 3090 ft 165 kts 168°
2026-04-26 22:47 -32.96968 -60.78482 3476 ft 176 kts 146°
2026-04-26 22:47 -32.97778 -60.77398 4024 ft 178 kts 123°
2026-04-26 22:48 -32.98367 -60.76078 4460 ft 185 kts 120°
2026-04-26 22:48 -32.98961 -60.74692 4905 ft 190 kts 118°
2026-04-26 22:48 -32.99526 -60.73283 5508 ft 186 kts 118°
2026-04-26 22:48 -33.00086 -60.71893 6051 ft 188 kts 120°
2026-04-26 22:49 -33.00733 -60.70507 6494 ft 194 kts 124°
2026-04-26 22:49 -33.01443 -60.69138 7025 ft 193 kts 125°
2026-04-26 22:49 -33.02303 -60.67901 7440 ft 198 kts 142°
2026-04-26 22:49 -33.03405 -60.66897 7883 ft 199 kts 149°
2026-04-26 22:50 -33.04514 -60.65981 8552 ft 192 kts 150°
2026-04-26 22:50 -33.05620 -60.65036 8955 ft 202 kts 149°
2026-04-26 22:50 -33.06730 -60.63931 9340 ft 212 kts 141°
2026-04-26 22:50 -33.07762 -60.62705 9962 ft 207 kts 141°
2026-04-26 22:51 -33.08778 -60.61484 10474 ft 207 kts 142°
2026-04-26 22:51 -33.09784 -60.60272 11051 ft 205 kts 141°
2026-04-26 22:51 -33.10785 -60.59020 11466 ft 213 kts 141°
2026-04-26 22:51 -33.11809 -60.57733 11972 ft 213 kts 141°
2026-04-26 22:52 -33.12816 -60.56458 12576 ft 210 kts 141°
2026-04-26 22:52 -33.13814 -60.55182 13019 ft 216 kts 141°
2026-04-26 22:52 -33.14825 -60.53839 13544 ft 218 kts 139°
2026-04-26 22:52 -33.15813 -60.52468 14061 ft 219 kts 139°
2026-04-26 22:53 -33.16821 -60.51074 14475 ft 224 kts 140°
2026-04-26 22:53 -33.17850 -60.49668 14920 ft 226 kts 140°
2026-04-26 22:53 -33.18914 -60.48315 15454 ft 220 kts 145°
2026-04-26 22:53 -33.19975 -60.47048 16079 ft 213 kts 146°
2026-04-26 22:54 -33.21038 -60.45780 16502 ft 220 kts 145°
2026-04-26 22:54 -33.22132 -60.44461 16980 ft 225 kts 146°
2026-04-26 22:54 -33.23265 -60.43192 17549 ft 223 kts 148°
2026-04-26 22:54 -33.24399 -60.41917 18083 ft 226 kts 148°
2026-04-26 22:55 -33.25587 -60.40674 18509 ft 229 kts 151°
2026-04-26 22:55 -33.26394 -60.39854 18799 ft 230 kts 150°
2026-04-26 22:55 -33.28063 -60.38129 19072 ft 250 kts 150°
2026-04-26 22:55 -33.29454 -60.36751 19077 ft 268 kts 151°
2026-04-26 22:56 -33.30436 -60.35810 19082 ft 278 kts 151°
2026-04-26 22:56 -33.31999 -60.34354 19060 ft 292 kts 152°
2026-04-26 22:56 -33.33646 -60.32873 19056 ft 301 kts 152°
2026-04-26 22:56 -33.35361 -60.31374 19042 ft 309 kts 153°
2026-04-26 22:57 -33.37122 -60.29866 19049 ft 314 kts 153°
2026-04-26 22:57 -33.38927 -60.28390 19124 ft 314 kts 155°
2026-04-26 22:57 -33.40764 -60.26942 19110 ft 318 kts 155°
2026-04-26 22:57 -33.42633 -60.25490 19080 ft 322 kts 155°
2026-04-26 22:58 -33.44517 -60.24033 19082 ft 324 kts 155°
2026-04-26 22:58 -33.46424 -60.22564 19123 ft 323 kts 155°
2026-04-26 22:58 -33.48332 -60.21117 19046 ft 327 kts 156°
2026-04-26 22:58 -33.50266 -60.19665 19050 ft 328 kts 156°
2026-04-26 22:59 -33.52174 -60.18164 19026 ft 332 kts 151°
2026-04-26 22:59 -33.54015 -60.16468 19011 ft 334 kts 150°
2026-04-26 22:59 -33.55873 -60.14804 19009 ft 333 kts 150°
2026-04-26 22:59 -33.57724 -60.13120 19006 ft 334 kts 150°
2026-04-26 23:00 -33.59556 -60.11398 18997 ft 336 kts 147°
2026-04-26 23:00 -33.61292 -60.09501 18970 ft 339 kts 143°
2026-04-26 23:00 -33.62993 -60.07532 18977 ft 339 kts 142°
2026-04-26 23:00 -33.64666 -60.05534 19012 ft 339 kts 141°
2026-04-26 23:01 -33.66293 -60.03537 19013 ft 339 kts 140°
2026-04-26 23:01 -33.67928 -60.01485 19005 ft 340 kts 140°
2026-04-26 23:01 -33.69547 -59.99407 18991 ft 341 kts 139°
2026-04-26 23:01 -33.71159 -59.97298 18998 ft 341 kts 138°
2026-04-26 23:02 -33.72747 -59.95188 19014 ft 341 kts 138°
2026-04-26 23:02 -33.74418 -59.93204 19044 ft 335 kts 147°
2026-04-26 23:02 -33.76236 -59.91483 19050 ft 333 kts 150°
2026-04-26 23:02 -33.78095 -59.89816 19054 ft 333 kts 150°
2026-04-26 23:03 -33.79961 -59.88171 19057 ft 333 kts 151°
2026-04-26 23:03 -33.81780 -59.86433 19054 ft 337 kts 144°
2026-04-26 23:03 -33.83514 -59.84534 19055 ft 336 kts 147°
2026-04-26 23:03 -33.85308 -59.82738 19054 ft 337 kts 145°
2026-04-26 23:04 -33.87063 -59.80862 19043 ft 337 kts 146°
2026-04-26 23:04 -33.88850 -59.79040 19048 ft 337 kts 146°
2026-04-26 23:04 -33.90613 -59.77180 19046 ft 337 kts 145°
2026-04-26 23:04 -33.92391 -59.75340 19044 ft 337 kts 146°
2026-04-26 23:05 -33.94165 -59.73485 19053 ft 338 kts 145°
2026-04-26 23:05 -33.95938 -59.71639 19047 ft 338 kts 146°
2026-04-26 23:05 -33.97719 -59.69781 19049 ft 338 kts 145°
2026-04-26 23:05 -33.99495 -59.67928 19044 ft 338 kts 146°
2026-04-26 23:06 -34.01271 -59.66073 19043 ft 338 kts 146°
2026-04-26 23:06 -34.03053 -59.64212 19044 ft 338 kts 146°
2026-04-26 23:06 -34.04828 -59.62358 19037 ft 339 kts 146°
2026-04-26 23:06 -34.06612 -59.60492 19040 ft 338 kts 146°
2026-04-26 23:07 -34.08392 -59.58633 19044 ft 337 kts 146°
2026-04-26 23:07 -34.10149 -59.56788 19030 ft 334 kts 146°
2026-04-26 23:07 -34.11888 -59.54961 19028 ft 329 kts 146°
2026-04-26 23:07 -34.13607 -59.53161 19031 ft 324 kts 146°
2026-04-26 23:08 -34.15281 -59.51410 19121 ft 316 kts 147°
2026-04-26 23:08 -34.16943 -59.49669 19068 ft 314 kts 146°
2026-04-26 23:08 -34.18573 -59.47954 19053 ft 309 kts 146°
2026-04-26 23:08 -34.20177 -59.46251 19045 ft 305 kts 146°
2026-04-26 23:09 -34.21747 -59.44558 19054 ft 300 kts 146°
2026-04-26 23:09 -34.23276 -59.42868 19025 ft 297 kts 144°
2026-04-26 23:09 -34.24758 -59.41152 19025 ft 293 kts 143°
2026-04-26 23:09 -34.26185 -59.39438 19000 ft 290 kts 142°
2026-04-26 23:10 -34.27532 -59.37618 18985 ft 287 kts 134°
2026-04-26 23:10 -34.28622 -59.35628 18868 ft 287 kts 125°
2026-04-26 23:10 -34.29563 -59.33484 18679 ft 290 kts 122°
2026-04-26 23:10 -34.30419 -59.31303 18512 ft 283 kts 120°
2026-04-26 23:11 -34.31248 -59.29162 18282 ft 280 kts 120°
2026-04-26 23:11 -34.32053 -59.27023 18097 ft 277 kts 119°
2026-04-26 23:11 -34.32813 -59.24908 17922 ft 272 kts 118°
2026-04-26 23:11 -34.33532 -59.22779 17581 ft 275 kts 116°
2026-04-26 23:12 -34.34238 -59.20632 17329 ft 274 kts 116°
2026-04-26 23:12 -34.34944 -59.18500 17082 ft 272 kts 117°
2026-04-26 23:12 -34.35644 -59.16388 16859 ft 269 kts 117°
2026-04-26 23:12 -34.36365 -59.14313 16695 ft 262 kts 118°
2026-04-26 23:13 -34.37033 -59.12404 17008 ft 236 kts 118°
2026-04-26 23:13 -34.37661 -59.10589 16996 ft 231 kts 118°
2026-04-26 23:13 -34.38248 -59.08801 16959 ft 227 kts 117°
2026-04-26 23:13 -34.38824 -59.07034 16906 ft 224 kts 117°
2026-04-26 23:14 -34.39397 -59.05284 16842 ft 223 kts 119°
2026-04-26 23:14 -34.40031 -59.03574 16727 ft 222 kts 121°
2026-04-26 23:14 -34.40690 -59.01870 16575 ft 225 kts 123°
2026-04-26 23:14 -34.41455 -59.00241 16497 ft 220 kts 129°
2026-04-26 23:15 -34.42260 -58.98699 16341 ft 219 kts 131°
2026-04-26 23:15 -34.43089 -58.97155 16107 ft 217 kts 131°
2026-04-26 23:15 -34.43941 -58.95655 15880 ft 217 kts 133°
2026-04-26 23:15 -34.44830 -58.94143 15650 ft 223 kts 133°
2026-04-26 23:16 -34.45760 -58.92596 15394 ft 230 kts 134°
2026-04-26 23:16 -34.46721 -58.91041 15192 ft 231 kts 134°
2026-04-26 23:16 -34.47711 -58.89474 14927 ft 236 kts 134°
2026-04-26 23:16 -34.48720 -58.87900 14697 ft 237 kts 134°
2026-04-26 23:17 -34.49753 -58.86330 14449 ft 239 kts 135°
2026-04-26 23:17 -34.50761 -58.84713 14220 ft 241 kts 131°
2026-04-26 23:17 -34.51688 -58.83012 13999 ft 242 kts 125°
2026-04-26 23:17 -34.52544 -58.81252 13780 ft 242 kts 125°
2026-04-26 23:18 -34.53389 -58.79490 13548 ft 241 kts 122°
2026-04-26 23:18 -34.54116 -58.77660 13326 ft 240 kts 119°
2026-04-26 23:18 -34.54839 -58.75828 13059 ft 240 kts 120°
2026-04-26 23:18 -34.55575 -58.74020 12867 ft 237 kts 121°
2026-04-26 23:19 -34.56319 -58.72258 12675 ft 235 kts 121°
2026-04-26 23:19 -34.57054 -58.70483 12421 ft 235 kts 121°
2026-04-26 23:19 -34.57786 -58.68710 12187 ft 235 kts 121°
2026-04-26 23:19 -34.58544 -58.66971 11957 ft 232 kts 125°
2026-04-26 23:20 -34.59394 -58.65312 11740 ft 231 kts 126°
2026-04-26 23:20 -34.60199 -58.63629 11513 ft 230 kts 121°
2026-04-26 23:20 -34.60839 -58.61896 11267 ft 220 kts 117°
2026-04-26 23:20 -34.61405 -58.60228 10924 ft 216 kts 114°
2026-04-26 23:21 -34.61847 -58.58494 10599 ft 214 kts 107°
2026-04-26 23:21 -34.62225 -58.56753 10207 ft 213 kts 111°
2026-04-26 23:21 -34.62702 -58.55049 9792 ft 212 kts 114°
2026-04-26 23:21 -34.63194 -58.53377 9355 ft 209 kts 114°
2026-04-26 23:22 -34.63674 -58.51719 8971 ft 206 kts 112°
2026-04-26 23:22 -34.64058 -58.50058 8581 ft 204 kts 109°
2026-04-26 23:22 -34.64412 -58.48404 8182 ft 202 kts 109°
2026-04-26 23:22 -34.64774 -58.46762 7760 ft 201 kts 110°
2026-04-26 23:23 -34.65137 -58.45129 7381 ft 199 kts 109°
2026-04-26 23:23 -34.65485 -58.43501 7011 ft 202 kts 110°
2026-04-26 23:23 -34.65880 -58.41858 6715 ft 203 kts 113°
2026-04-26 23:23 -34.66327 -58.40239 6481 ft 201 kts 115°
2026-04-26 23:24 -34.66780 -58.38640 6239 ft 200 kts 112°
2026-04-26 23:24 -34.67151 -58.37006 5944 ft 202 kts 110°
2026-04-26 23:24 -34.67504 -58.35358 5651 ft 202 kts 110°
2026-04-26 23:24 -34.67891 -58.33709 5287 ft 204 kts 112°
2026-04-26 23:25 -34.68317 -58.32069 5042 ft 201 kts 113°
2026-04-26 23:25 -34.68748 -58.30471 4797 ft 198 kts 114°
2026-04-26 23:25 -34.69181 -58.28885 4475 ft 199 kts 114°
2026-04-26 23:25 -34.69681 -58.27331 4228 ft 195 kts 118°
2026-04-26 23:26 -34.70182 -58.25820 4012 ft 192 kts 117°
2026-04-26 23:26 -34.70654 -58.24306 3777 ft 191 kts 114°
2026-04-26 23:26 -34.70911 -58.22755 3597 ft 193 kts 89°
2026-04-26 23:26 -34.70382 -58.21274 3360 ft 195 kts 44°
2026-04-26 23:27 -34.69214 -58.20560 3106 ft 188 kts
2026-04-26 23:27 -34.67939 -58.20577 2987 ft 179 kts 350°
2026-04-26 23:27 -34.66788 -58.20946 2759 ft 170 kts 319°
2026-04-26 23:27 -34.66225 -58.21608 2567 ft 166 kts 300°
2026-04-26 23:28 -34.65446 -58.23142 2374 ft 160 kts 293°
2026-04-26 23:28 -34.64912 -58.24359 2317 ft 165 kts 292°
2026-04-26 23:28 -34.64415 -58.25609 2285 ft 168 kts 290°
2026-04-26 23:28 -34.63937 -58.26905 2167 ft 167 kts 289°
2026-04-26 23:29 -34.63440 -58.28173 2046 ft 167 kts 295°
2026-04-26 23:29 -34.62754 -58.29298 2011 ft 165 kts 305°
2026-04-26 23:29 -34.62008 -58.30359 1885 ft 166 kts 302°
2026-04-26 23:29 -34.61360 -58.31485 1795 ft 158 kts 295°
2026-04-26 23:30 -34.60817 -58.32623 1662 ft 153 kts 292°
2026-04-26 23:30 -34.60290 -58.33739 1479 ft 153 kts 297°
2026-04-26 23:30 -34.59679 -58.34793 1310 ft 153 kts 297°
2026-04-26 23:30 -34.59096 -58.35873 1103 ft 148 kts 296°
2026-04-26 23:31 -34.58549 -58.36872 913 ft 137 kts 300°
2026-04-26 23:31 -34.58028 -58.37797 677 ft 129 kts 300°
2026-04-26 23:31 -34.57540 -58.38682 466 ft 122 kts 299°
2026-04-26 23:31 -34.57079 -58.39501 290 ft 113 kts 300°
2026-04-26 23:32 -34.56642 -58.40273 139 ft 110 kts 296°
2026-04-26 23:32 -34.56224 -58.41020 24 ft 98 kts 299°
2026-04-26 23:32 -34.55914 -58.41597 20 ft 69 kts 305°
2026-04-26 23:32 -34.55718 -58.41963 23 ft 43 kts 301°
2026-04-26 23:33 -34.55616 -58.42051 24 ft 2 kts 65°
2026-04-26 23:33 -34.55641 -58.41999 24 ft 28 kts 119°
2026-04-26 23:33 -34.55686 -58.41907 23 ft 0 kts 30°
2026-04-26 23:34 -34.55681 -58.41904 23 ft 7 kts 31°
2026-04-26 23:34 -34.55692 -58.41824 25 ft 15 kts 124°
2026-04-26 23:34 -34.55765 -58.41680 24 ft 23 kts 118°
2026-04-26 23:35 -34.55813 -58.41543 22 ft 15 kts 114°
2026-04-26 23:35 -34.55851 -58.41455 24 ft 0 kts 122°
2026-04-26 23:36 -34.55851 -58.41454 24 ft 1 kts 122°
2026-04-26 23:36 -34.55887 -58.41392 23 ft 9 kts 119°
2026-04-26 23:36 -34.55906 -58.41337 22 ft 9 kts 111°
2026-04-26 23:36 -34.55950 -58.41311 22 ft 7 kts 204°
2026-04-26 23:37 -34.55953 -58.41313 22 ft 0 kts 206°
2026-04-26 23:39 -34.55956 -58.41314 22 ft 6 kts 206°
2026-04-26 23:39 -34.56085 -58.41422 22 ft 18 kts 198°
2026-04-26 23:39 -34.56138 -58.41456 22 ft 7 kts 209°
2026-04-26 23:40 -34.56175 -58.41471 22 ft 5 kts 173°
2026-04-26 23:40 -34.56170 -58.41432 22 ft 8 kts 35°
2026-04-26 23:40 -34.56167 -58.41430 22 ft 0 kts 35°